Back to catalog

COSMOS 1174

AliveMilitaryLEO
NORAD 11765·PAYLOAD·🇷🇺 Russia

Launched Apr 18, 1980 from Baikonur Cosmodrome

Loading…

Next Passes (next 24 hours)

TLE

FreshSource: Space-Track

Epoch: Sep 14, 2026, 14:13 UTC

1 11765U 80030A   26257.59302833  .00001811  00000-0  89878-4 0  9991
2 11765  66.0812 333.1570 0465337  49.7484 314.3360 14.58605859391960

Track COSMOS 1174 in real time with AllMySat

Download on the App Store